Regional Weather Roundup
Issued by NWS Wakefield, VA

Home | Current Version | Previous Version | Graphics & Text | Print | Product List | Glossary On
Versions: 1 2 3 4 5 6 7 8 9 10 11 12 13 14 15 16 17 18 19 20 21 22 23 24 25 26 27 28 29 30 31 32 33 34 35 36 37 38 39 40 41 42 43 44 45 46 47 48 49 50
573
ASUS41 KAKQ 270515
RWRAKQ

REGIONAL WEATHER ROUNDUP
NATIONAL WEATHER SERVICE WAKEFIELD VA
100 AM EDT FRI MAY 27 2016

Note: "fair" indicates few or no clouds below 12,000 feet with no
significant weather and/or obstructions to visibility. * = Denotes
station may not report precipitation (e.g., rain,snow,etc.),
thunder or fog.

VAZ042-051-052>054-056-270600-
NORTHERN VIRGINIA

CITY           SKY/WX    TMP DP  RH WIND       PRES   REMARKS
WASH NATIONAL  MOCLDY    74  63  68 S8        30.05R
DULLES         FAIR      73  63  70 S6        30.04S
FORT BELVOIR   FAIR      67  65  94 CALM      30.04R
QUANTICO       FAIR      74  64  71 CALM      30.05R
FREDERICKSBRG* NOT AVBL
STAFFORD*      FAIR      65  63  91 CALM      30.09R
WARRENTON      FAIR      67  61  80 CALM      30.04R
CULPEPER*      FAIR      67  66  97 CALM      30.06R
MANASSAS*      FAIR      68  66  94 CALM      30.05R
LEESBURG*      MOCLDY    73  68  83 S7        30.05R
WINCHESTER     FAIR      68  64  88 CALM      30.06R FOG
FRONT ROYAL*   FAIR      66  64  94 S3        30.05S
LURAY*         FAIR      68  64  88 SW6       30.07S
$$

VAZ048-049-060>072-079>083-270600-
CENTRAL AND SOUTH CENTRAL VIRGINIA

CITY           SKY/WX    TMP DP  RH WIND       PRES   REMARKS
RICHMOND       FAIR      72  64  76 S9        30.07S
CHESTERFIELD*  FAIR      72  55  56 S7        30.09R
PETERSBURG*    FAIR      73  66  79 S3        30.09R
HANOVER        FAIR      74  62  66 S6        30.08R
TAPPAHANNOCK*  FAIR      73  64  72 S6        30.08R
QUINTON*       FAIR      74  66  76 S7        30.08R
CHARLOTTSVILLE CLOUDY    74  63  68 CALM      30.07R
GORDONSVILLE*  FAIR      67  66  97 CALM      30.06R
ORANGE*        FAIR      68  68 100 CALM      30.08R
LOUISA*        FAIR      73  66  78 CALM      30.06R
BUMPASS*       CLOUDY    70  65  85 CALM      30.06S
FARMVILLE*     CLOUDY    68  68 100 CALM      30.07R
CREWE*         FAIR      67  67 100 CALM      30.08R
FORT PICKETT*  NOT AVBL
CHASE CITY*    FAIR      70  67  90 SE3       30.09S
CLARKSVILLE*   FAIR      70  66  88 S5        30.09R
SOUTH HILL*    FAIR      70  65  84 S7        30.16R
LAWRENCEVILLE* FAIR      70  66  87 CALM      30.10R
EMPORIA*       FAIR      70  63  78 SE3       30.12R
$$

VAZ088>098-270600-
SOUTHEAST VIRGINIA

CITY           SKY/WX    TMP DP  RH WIND       PRES   REMARKS
NORFOLK        FAIR      73  61  65 S17       30.10F
VIRGINIA BEACH FAIR      76  62  62 S13G22    30.10F
NORFOLK NAVAL  FAIR      74  63  68 S9G22     30.11F
WEST POINT*    FAIR      74  64  70 S8        30.09S
SALUDA*        FAIR      74  66  75 S8        30.07S
NEWPORT NEWS   FAIR      74  63  68 S15       30.09F
LANGLEY AFB    FAIR      73  64  71 S13       30.09F
FORT EUSTIS    FAIR      73  64  72 S7        30.08S
WILLIAMSBURG*  FAIR      75  66  73 S6        30.10S
HR EXEC AP*    FAIR      72  63  73 S10       30.12F
FRANKLIN*      FAIR      71  62  71 S7        30.11S
US460-WAKEFLD  FAIR      73  63  70 S6        30.10R
$$

VAZ020-022-025-037-045-270600-
WEST CENTRAL AND SOUTHWEST VIRGINIA

CITY           SKY/WX    TMP DP  RH WIND       PRES   REMARKS
STAUNTON*      FAIR      64  61  91 CALM      30.12R
WAYNESBORO*    FAIR      64  60  88 CALM      30.11R
HOT SPRINGS VA CLOUDY    64  59  85 W8        30.21S
LYNCHBURG      FAIR      65  63  93 CALM      30.11R
DANVILLE       MOCLDY    65  63  93 CALM      30.10R
SOUTH BOSTON*  FAIR      70  67  88 CALM      30.09R
MARTINSVILLE   MOCLDY    61  61  99 CALM      30.13S
ROANOKE        MOCLDY    67  65  93 N3        30.13R
BLACKSBURG     FAIR      62  61  98 CALM      30.20R
DUBLIN*        FAIR      64  63  96 CALM      30.17S
MARION*        FAIR      61  60  96 W3        30.21S FOG
HILLSVILLE*    FAIR      64  62  91 SW3       30.18R
RICHLANDS*     FAIR      64  54  69 CALM      30.19R
WISE*          FAIR      61  61 100 S3        30.18S
ABINGDON*      FAIR      64  63  99 CALM      30.17R
$$

MDZ021>025-VAZ099-100-270600-
SOUTHERN MARYLAND AND THE DELMARVA PENINSULA

CITY           SKY/WX    TMP DP  RH WIND       PRES   REMARKS
PATUXENT RIVER PTCLDY    74  63  68 S10       30.05S
BAY BRIDGE APT CLEAR     73  66  78 S8        30.04S
LEONARDTOWN    PTCLDY    73  63  68 S6        30.07S
DOVER          CLEAR     72  66  83 S9        30.04F
GEORGETOWN     CLEAR     71  63  75 S8        30.08F
EASTON         CLEAR     75  70  83 S9        30.09S
CAMBRIDGE      CLEAR     72  64  78 S6        30.05F
SALISBURY      CLEAR     70  64  81 S6        30.08S
OCEAN CITY     PTCLDY    70  64  81 SW9       30.09F
WALLOPS ISLAND FAIR      68  64  87 S12       30.10F
ACCOMACK*      FAIR      70  63  78 S6        30.09S
$$

NCZ012>017-030>032-270600-
NORTH CENTRAL AND EASTERN NORTH CAROLINA

CITY           SKY/WX    TMP DP  RH WIND       PRES   REMARKS
ROANOKE RAPIDS FAIR      72  61  68 S7        30.11R
RALEIGH        PTCLDY    73  64  73 SW8       30.12R
ELIZABETH CITY CLEAR     71  65  81 S9        30.13F
AHOSKIE*       CLEAR     70  60  70 S7        30.11F
EDENTON*       CLEAR    N/A N/A N/A S9        30.14F
CURRITUCK*     CLEAR     72  65  78 SW7       30.14S
KILL DEVIL HLS CLEAR     71  64  78 S5        30.14F
MANTEO         NOT AVBL
CAPE HATTERAS  CLEAR     72  64  76 SW7       30.17S
TARBORO*       FAIR      71  61  70 S5        30.13S
GOLDSBORO      CLEAR     70  68  95 SW5       30.13R
WASHINGTON     CLEAR     69  64  84 S5        30.14F
GREENVILLE     CLEAR     72  64  78 S9        30.14F
NEW BERN       CLEAR     67  63  87 S5        30.16F
WILMINGTON     CLEAR     70  65  84 SE5       30.14F
$$

VAZ048-270600-
ELSEWHERE

CITY           SKY/WX    TMP DP  RH WIND       PRES   REMARKS
HARRISBURG PA  CLOUDY    75  65  70 S5        30.02S
BALTIMORE      PTCLDY    70  63  78 CALM      30.04R
ANNAPOLIS      PTCLDY    71  65  81 S7        30.04S
ANDREWS AFB    FAIR      73  63  72 S7        30.04R
PHILADELPHIA   MOCLDY    75  61  61 SW6       30.06S
HENDERSON NC   CLEAR     68  62  79 S6        30.11R
GREENSBORO     PTCLDY    73  62  68 S9        30.11R
ROCKY MOUNT    CLEAR     71  63  75 S6        30.12S
$$

VAZ100-270600-
MARINE

STATION/POSITION TIME  TEMP    WIND        PRES    WAVE   SWELL
                       AIR SEA DIR/SP/G            HT/PER HT/PER
                 (UTC) (F)     (DEG/KT/KT) (MB)    (FT/S) (FT/S)
BRANDYWINE LGT   0400   71     210/ 16/ 16 1018.4S
CAPE MAY NJ      0400   68 68  160/  7/ 11 1018.3F
LEWES DE         0400   75 61  200/  7/ 12 1018.4S
15NM E FENWICK I 0450   64 59              1018.9F   3/ 8
OCEAN-CITY-INLET 0400   64 62  220/ 13/ 16 1019.6S
WACHAPREAGUE VA  0400   72 75  210/ 10/ 12 1018.8F
THOMAS POINT MD  0500   71 65  180/ 16/ 16 1018.5R
GOOSES REEF MD   0500   68 65  160/ 10/ 10 1018.4F   1/ 3
COVE POINT MD    0400   69     190/ 12/ 14 1018.3F
SOLOMONS ISLAND  0400   74 65  190/ 10/ 11   N/A
BISHOPS HEAD MD  0400   75 77  180/ 18/ 22 1018.1F
PINEY POINT MD   0400          190/  8/ 10   N/A
POTOMAC MD       0500   73 70  220/ 12/ 14 1017.0F   1/ 2
CAMBRIDGE MD     0400   74 65  180/  4/  8 1017.3F
LEWISETTA VA     0400   76 72  210/ 10/ 12 1017.7S
RAPPAHANNOCK LGT 0400          180/ 17/ 19 1019.3F
STINGRAY PT      0500   74 69  210/ 12/ 14 1018.7F   1/ 2
YORK RVR RNG VA  0400   75     210/ 17/ 19 1018.1F
YORKTOWN VA      0400   76 66  200/ 10/ 14 1018.5F
JAMESTOWN VA     0500   74 71  200/ 12/ 16   N/A
DOMINION TERM VA 0400   74     200/ 14/ 17 1019.2F
KIPTOPEKE VA     0400      70  190/ 12/ 14   N/A
CHES BAY BRIDGE  0406   74 66  180/ 16/ 18 1019.1F
CAPE HENRY VA    0400   74     200/ 13/ 21   N/A
CHESAPEAKE LGHT  0400   70     200/ 19/ 20 1020.3R
WILLOUBY STN VA  0400   75     190/ 17/ 20 1020.1F
CAPE HENRY BUOY  0412      67                N/A     2/ 4
1ST LANDING BUOY 0500   72 67  200/ 16/ 19 1018.8F   1/ 2
CAPE CHARLES BUO 0426      67                N/A     2/ 4   2/ 7
OFFSHORE WE BUOY 0421      61                N/A     2/ 4   2/ 8
64NM E OF VA BCH 0450   64 59  200/  8/ 10 1020.4F   2/ 8   2/ 8
DUCK PIER NC     0400   73 61  200/ 12/ 15 1020.2F
44100 DUCK FRF   0424      66                N/A     2/ 8
44056 DUCK FRF   0411      63                N/A     2/ 8
OREGON INLET NC  0400   74 77  200/ 12/ 13 1021.2F
HATTERAS NC      0400   73 74  190/  4/  7 1021.3F
DIAMOND SHLS NC  0450   76 71  170/ 10/ 12 1021.4F   2/ 8   2/ 8
CAPE LOOKOUC1F1C2F2C3F3C4F4C5F5C6F6C7F7C8M1C9!



USA.gov is the U.S. government's official web portal to all federal, state and local government web resources and services.